YC2UTC-13 Weather Reports


time (UTC)temp
C
wind
direction
speed
KPH
gust
KPH
rain 1hr
cm
rain 24hr
cm
rain mn
cm
humidity
%
barometer
mb
20260505083813 36 0 0.0 0.0 0.00 0.00 0.00 53 988.6
20260505083305 36 0 0.0 0.0 0.00 0.00 0.00 53 988.5
20260505082757 36 0 0.0 0.0 0.00 0.00 0.00 52 988.5
20260505082249 36 0 0.0 0.0 0.00 0.00 0.00 52 988.5
20260505081739 37 0 0.0 0.0 0.00 0.00 0.00 51 988.4
20260505081231 37 0 0.0 0.0 0.00 0.00 0.00 51 988.5
20260505080723 37 0 0.0 0.0 0.00 0.00 0.00 50 988.5
20260505080214 37 0 0.0 0.0 0.00 0.00 0.00 50 988.4
20260505075705 38 0 0.0 0.0 0.00 0.00 0.00 49 988.4
20260505075156 38 0 0.0 0.0 0.00 0.00 0.00 48 988.4
20260505074648 39 0 0.0 0.0 0.00 0.00 0.00 47 988.4
20260505074140 40 0 0.0 0.0 0.00 0.00 0.00 46 988.4
20260505073632 41 0 0.0 0.0 0.00 0.00 0.00 45 988.5
20260505073119 41 0 0.0 0.0 0.00 0.00 0.00 44 988.5
20260505072609 41 0 0.0 0.0 0.00 0.00 0.00 44 988.5
20260505072101 42 0 0.0 0.0 0.00 0.00 0.00 43 988.6
20260505071552 42 0 0.0 0.0 0.00 0.00 0.00 43 988.7
20260505071041 42 0 0.0 0.0 0.00 0.00 0.00 43 988.7
20260505070532 42 0 0.0 0.0 0.00 0.00 0.00 42 988.8
20260505070022 42 0 0.0 0.0 0.00 0.00 0.00 42 988.9
20260505065514 42 0 0.0 0.0 0.00 0.00 0.00 42 989.0
20260505065004 42 0 0.0 0.0 0.00 0.00 0.00 43 989.0
20260505064451 41 0 0.0 0.0 0.00 0.00 0.00 43 989.1
20260505063943 41 0 0.0 0.0 0.00 0.00 0.00 43 989.1
20260505063435 42 0 0.0 0.0 0.00 0.00 0.00 42 989.2
20260505062927 42 0 0.0 0.0 0.00 0.00 0.00 41 989.3
20260505062419 44 0 0.0 0.0 0.00 0.00 0.00 40 989.4
20260505061911 46 0 0.0 0.0 0.00 0.00 0.00 38 989.4
20260505061402 47 0 0.0 0.0 0.00 0.00 0.00 38 989.5
20260505060854 47 0 0.0 0.0 0.00 0.00 0.00 38 989.6
20260505060345 46 0 0.0 0.0 0.00 0.00 0.00 39 989.6
20260505055834 47 0 0.0 0.0 0.00 0.00 0.00 39 989.7
20260505055324 47 0 0.0 0.0 0.00 0.00 0.00 40 989.8
20260505054815 46 0 0.0 0.0 0.00 0.00 0.00 40 989.8
20260505054304 46 0 0.0 0.0 0.00 0.00 0.00 40 989.9
20260505053755 46 0 0.0 0.0 0.00 0.00 0.00 42 990.0
20260505053246 46 0 0.0 0.0 0.00 0.00 0.00 42 990.1
20260505052738 45 0 0.0 0.0 0.00 0.00 0.00 44 990.2
20260505052229 43 0 0.0 0.0 0.00 0.00 0.00 46 990.3
20260505051720 42 0 0.0 0.0 0.00 0.00 0.00 45 990.4
20260505051208 42 0 0.0 0.0 0.00 0.00 0.00 46 990.4
20260505050658 41 0 0.0 0.0 0.00 0.00 0.00 48 990.6
20260505050149 40 0 0.0 0.0 0.00 0.00 0.00 50 990.7
20260505041529 40 0 0.0 0.0 0.00 0.00 0.00 48 991.5
20260505041020 41 0 0.0 0.0 0.00 0.00 0.00 46 991.5
20260505040511 43 0 0.0 0.0 0.00 0.00 0.00 45 991.6
20260505040003 43 0 0.0 0.0 0.00 0.00 0.00 46 991.7
20260505035453 42 0 0.0 0.0 0.00 0.00 0.00 49 991.8
20260505034942 40 0 0.0 0.0 0.00 0.00 0.00 51 991.9
20260505034435 39 0 0.0 0.0 0.00 0.00 0.00 50 991.9
20260505033926 40 0 0.0 0.0 0.00 0.00 0.00 49 991.9
20260505033413 40 0 0.0 0.0 0.00 0.00 0.00 49 991.9
20260505032904 41 0 0.0 0.0 0.00 0.00 0.00 49 991.9
20260505032356 41 0 0.0 0.0 0.00 0.00 0.00 49 991.9
20260505031847 41 0 0.0 0.0 0.00 0.00 0.00 50 992.0
20260505031337 42 0 0.0 0.0 0.00 0.00 0.00 50 992.0
20260505030828 41 0 0.0 0.0 0.00 0.00 0.00 50 992.1
20260505030319 42 0 0.0 0.0 0.00 0.00 0.00 50 992.1
20260505025808 41 0 0.0 0.0 0.00 0.00 0.00 50 992.1
20260505025258 42 0 0.0 0.0 0.00 0.00 0.00 51 992.1
20260505024750 41 0 0.0 0.0 0.00 0.00 0.00 52 992.1
20260505024242 41 0 0.0 0.0 0.00 0.00 0.00 53 992.1
20260505023734 41 0 0.0 0.0 0.00 0.00 0.00 54 992.1
20260505023224 41 0 0.0 0.0 0.00 0.00 0.00 53 992.2
20260505022716 41 0 0.0 0.0 0.00 0.00 0.00 54 992.2
20260505022207 41 0 0.0 0.0 0.00 0.00 0.00 55 992.2
20260505021659 41 0 0.0 0.0 0.00 0.00 0.00 56 992.3
20260505021151 40 0 0.0 0.0 0.00 0.00 0.00 55 992.3
20260505020642 40 0 0.0 0.0 0.00 0.00 0.00 55 992.4
20260505020135 39 0 0.0 0.0 0.00 0.00 0.00 57 992.3
20260505015627 39 0 0.0 0.0 0.00 0.00 0.00 59 992.4
20260505015117 38 0 0.0 0.0 0.00 0.00 0.00 60 992.4
20260505014609 37 0 0.0 0.0 0.00 0.00 0.00 59 992.4
20260505014101 37 0 0.0 0.0 0.00 0.00 0.00 62 992.4
20260505013551 36 0 0.0 0.0 0.00 0.00 0.00 64 992.4
20260505013044 35 0 0.0 0.0 0.00 0.00 0.00 65 992.4
20260505012536 34 0 0.0 0.0 0.00 0.00 0.00 67 992.4
20260505012027 33 0 0.0 0.0 0.00 0.00 0.00 68 992.4
20260505011519 32 0 0.0 0.0 0.00 0.00 0.00 71 992.4
20260505011010 31 0 0.0 0.0 0.00 0.00 0.00 73 992.3
20260505010500 30 0 0.0 0.0 0.00 0.00 0.00 74 992.2
20260505005951 30 0 0.0 0.0 0.00 0.00 0.00 75 992.2
20260505005443 29 0 0.0 0.0 0.00 0.00 0.00 76 992.1
20260505004934 28 0 0.0 0.0 0.00 0.00 0.00 77 992.1
20260505004426 28 0 0.0 0.0 0.00 0.00 0.00 77 992.1
20260505003918 27 0 0.0 0.0 0.00 0.00 0.00 77 992.0
20260505003409 27 0 0.0 0.0 0.00 0.00 0.00 78 992.0
20260505002901 27 0 0.0 0.0 0.00 0.00 0.00 78 991.9
20260505002353 27 0 0.0 0.0 0.00 0.00 0.00 78 991.9
20260505001844 27 0 0.0 0.0 0.00 0.00 0.00 78 991.8
20260505001334 27 0 0.0 0.0 0.00 0.00 0.00 78 991.8
20260505000825 27 0 0.0 0.0 0.00 0.00 0.00 78 991.8
20260505000314 27 0 0.0 0.0 0.00 0.00 0.00 78 991.7
20260504235804 26 0 0.0 0.0 0.00 0.00 0.00 78 991.7
20260504235255 26 0 0.0 0.0 0.00 0.00 0.00 78 991.7
20260504234747 26 0 0.0 0.0 0.00 0.00 0.00 78 991.6
20260504234238 26 0 0.0 0.0 0.00 0.00 0.00 78 991.6
20260504233729 26 0 0.0 0.0 0.00 0.00 0.00 79 991.5
20260504233222 26 0 0.0 0.0 0.00 0.00 0.00 78 991.5
20260504232713 26 0 0.0 0.0 0.00 0.00 0.00 79 991.5
20260504232204 26 0 0.0 0.0 0.00 0.00 0.00 78 991.4
20260504231655 26 0 0.0 0.0 0.00 0.00 0.00 78 991.3
20260504231148 26 0 0.0 0.0 0.00 0.00 0.00 78 991.2
20260504230639 26 0 0.0 0.0 0.00 0.00 0.00 78 991.1
20260504230129 26 0 0.0 0.0 0.00 0.00 0.00 78 991.1
20260504225620 26 0 0.0 0.0 0.00 0.00 0.00 78 991.0
20260504225111 26 0 0.0 0.0 0.00 0.00 0.00 78 990.9
20260504224602 26 0 0.0 0.0 0.00 0.00 0.00 78 990.9